Погода в Новоивановке

Украина / Днепропетровская область     48°02′28″N   33°31′13″E
темп.,
°C
ветер,
м/с
пор.,
м/с
влажн.,
%
обл.,
%
осадки,
мм/ч
давл.,
гПа
погр.,
м
21 апреля, ср
ср2100:00+8зсз5107599 0.0 1008301
03:00+7з498168 0.0 1010271
06:00+6з378477 0.0 1011176
09:00+10зюз46645 0.0 1013599
12:00+15зюз684276 0.0 10142163
15:00+14зюз6845100 0.0 10141796
18:00+14з574857 0.1 10151654
21:00+11з22625 0.1 101757
22 апреля, чт
чт2200:00+9юз24715 0.0 101875
03:00+8юз34835 0.0 101986
06:00+7юз23865 0.0 102065
09:00+12ююз35665 0.0 1021450
12:00+16юз45445 0.2 10211899
15:00+16ююз4543100 0.3 10201567
18:00+16ююз464890 0.0 1019976
21:00+12ююз47635 0.0 1020222
23 апреля, пт
пт2300:00+10ююз49760 0.0 1020282
03:00+9ю410835 0.0 1019309
06:00+8ю411867 0.0 1019317
09:00+11ююз61370100 0.0 1018590
12:00+17ююз8115279 0.0 10171488
15:00+17ююз91253100 1.8 10151732
18:00+11зюз5885100 3.1 1016720
21:00+8ссз4591100 11.1 1018397
24 апреля, сб
сб2400:00+7ссз4686100 0.9 1018485
03:00+5зсз36890 0.9 1018225
06:00+4з37873 0.0 1018212
09:00+9з57605 0.0 1019843
12:00+11з91049100 0.1 10182063
15:00+10з81334100 0.2 10192754
18:00+9сз8104522 0.0 10202177
21:00+6зсз48573 0.0 1022502
25 апреля, вс
вс2500:00+5зсз36620 0.0 1022168
03:00+4зсз35640 0.0 1023119
06:00+3з23670 0.0 102271
09:00+8зюз34483 0.0 1022597
12:00+11з453236 0.0 10211791
15:00+13з463185 0.0 10192364
18:00+13зюз4639100 0.0 10182143
21:00+7ссз4682100 0.6 1020692